Preview of NWS' New Version of Forecast
This preview is not operational and should not be used for support decisions.

Regional Weather Roundup (RWR)

Issued by Gray - Portland, ME (GYX)

                            
000
ASUS41 KGYX 210510
RWRGYX
WEATHER ROUNDUP FOR MAINE AND NEW HAMPSHIRE
NATIONAL WEATHER SERVICE GRAY ME
1200 AM EST MON JAN 21 2019

MEZ002-005-006-010-012-015-018-020-021-024-026-027-029-210600-
MAINE
  
CITY           SKY/WX    TMP DP  RH WIND       PRES   REMARKS
PORTLAND       MOCLDY    12  -1  56 NW16G24   29.42R WCI  -5          
SANFORD        CLOUDY     5  -4  66 W16       29.44R WCI -14          
BAR HARBOR     FLURRIES  13   9  84 NW9G22    29.26R                  
WISCASSET      FAIR      11  -1  58 VRB5G21   29.39R                  
ROCKLAND       CLOUDY    12   4  70 NW9G21    29.32R                  
FRYEBURG       FAIR       5  -3  69 CALM      29.41R                  
LEWISTONAUBURN CLOUDY     7  -4  60 NW15G24   29.40R WCI -10          
AUGUSTA        CLOUDY    11   0  61 NW16G26   29.35R WCI  -6          
WATERVILLE       N/A    N/A N/A N/A MISG        N/A                   
BANGOR         CLOUDY    12   4  70 NW12      29.31R WCI  -2          
GREENVILLE       N/A      5  -2  72 NW20G33   29.24F WCI -15          
MILLINOCKET    CLOUDY    14   4  64 N17G32    29.30F WCI  -3          
HOULTON        LGT SNOW  12   8  84 N17G26    29.24S VSB 1   WCI  -5  
PRESQUE ISLE   LGT SNOW  10   6  84 N20       29.33F FOG     WCI  -9  
FRENCHVILLE    LGT SNOW  10   3  73 N15G23    29.33F VSB 1   WCI  -7  
CARIBOU        SNOW      10   5  80 N18G26    29.32F VSB 1/2 WCI  -8  
$$

NHZ002-005-008-009-011-012-014-210600-
NEW HAMPSHIRE
  
CITY           SKY/WX    TMP DP  RH WIND       PRES   REMARKS
PORTSMOUTH     CLOUDY     6  -6  56 W13G24    29.46R WCI -10          
ROCHESTER      MOCLDY     4  -7  60 NW10G17   29.44R WCI -11          
NASHUA         FAIR       4  -7  60 NW17G26   29.55R WCI -16          
MANCHESTER     FAIR       4 -11  50 NW20G37   29.53R WCI -17          
CONCORD        FAIR       1 -10  60 NW18G33   29.52R WCI -20          
LACONIA        FAIR      -1 -10  65 W13G23    29.47R WCI -19          
PLYMOUTH       FAIR      -2 -12  65 W17G24    29.53R WCI -24          
BERLIN         CLOUDY    -5 -12  72 VRB6      29.50R                  
WHITEFIELD     CLOUDY    -5 -12  72 N5        29.56R                  
JAFFREY        FAIR       1 -10  60 NW10G23   29.50R WCI -15          
KEENE          FAIR       2  -9  60 NW12G18   29.61R WCI -15          
LEBANON        FAIR       0 -13  54 N8        29.62R                  
MT WASHINGTON  PTCLDY    -4  -6  92 NW24        N/A  WCI -29          
$$

VTZ005-007-008-210600-
VERMONT
  
CITY           SKY/WX    TMP DP  RH WIND       PRES   REMARKS
ST JOHNSBURY     N/A     -6 -11  79 MISG      29.62R                  
MONTPELIER     CLOUDY    -6 -10  83 NW16G24   29.63R FOG     WCI -28  
BURLINGTON     LGT SNOW  -1  -8  72 N14       29.76R FOG     WCI -20  
$$

MAZ007-012-024-CTZ003-RIZ002-NYZ038-NYZ072-210600-
SOUTHERN NEW ENGLAND AND NY
  
CITY           SKY/WX    TMP DP  RH WIND       PRES   REMARKS
BOSTON         FAIR      10  -3  55 W20G31    29.53R WCI  -9          
WORCESTER      FAIR       1  -9  62 NW24G37   29.49R WCI -22          
NANTUCKET      CLOUDY    21  15  78 NW18G30   29.48R WCI   6          
PROVIDENCE     FAIR      10   2  69 NW16G25   29.58R WCI  -7          
HARTFORD       FAIR       4  -8  57 NW16      29.69R WCI -15          
ALBANY         CLOUDY     0 -12  57 NW13G24   29.81R WCI -18          
NEW YORK CITY  FAIR      16   4  59 NW29G36   29.78R WCI  -4          
$$

ANZ081-ANZ082-ANZ150-NHZ014-MEZ023>029-210600-
COASTAL MARINE OBSERVATIONS
  
STATION/POSITION TIME  TEMP    WIND        PRES    WAVE
                       AIR SEA DIR/SP/G            HT/PER
                 (UTC) (F)     (DEG/KT/KT) (MB)    (FT/S)
MOUNT DESERT ROC 0500   19     300/ 18/ 20  989.7R
MATINICUS ROCK   0400   17     320/ 20/ 22  990.8R
ISLE OF SHOALS   0400    9     290/ 29/ 33  995.3R
JEFFREYS LEDGE   0408      41                N/A    10/ 9
CASHES LEDGE BUO 0450   21 40               993.0R  11/10
$$

.............KEY..............
   WCI - WIND CHILL
   TC  - TEMPERATURE IN CELSIUS
   VSB - VISIBILITY IN MILES
   HX  - HEAT INDEX
   FAIR- INDICATES FEW OR NO CLOUDS BELOW 12,000 FT, WITH NO 
         SIGNIFICANT WEATHER AND/OR OBSTRUCTIONS TO VISIBILITY.